Stations météo

réclame
Mon MeteoGroup
St-Hubert, Belgique (6476): Température de l'air & dewpoint: 18.11.2017 15:00:00 - 24.11.2017 15:00:00 (CET)St-Hubert, Belgique (6476): Vitesse du vent & gusts: 18.11.2017 15:00:00 - 24.11.2017 15:00:00 (CET)St-Hubert, Belgique (6476): Direction du vent: 18.11.2017 15:00:00 - 24.11.2017 15:00:00 (CET)St-Hubert, Belgique (6476): reduced air pressure: 18.11.2017 15:00:00 - 24.11.2017 15:00:00 (CET)St-Hubert, Belgique (6476): visibility: 18.11.2017 15:00:00 - 24.11.2017 15:00:00 (CET)
Date & Time tt [°C] td [°C] ff [km/h] ff [knt] fx [km/h] fx [knt] dd ppp [hPa] vv [km]
24.11.2017 15:00:00 5,1 3,7 4 2 18 10 W 1012,4 23
24.11.2017 14:00:00 5,2 3,8 14 8 18 10 WNW 1012,4 24
24.11.2017 13:00:00 5,2 4,0 11 6 - - WNW 1012,3 7
24.11.2017 12:00:00 5,4 4,8 11 6 25 14 NW 1011,8 0,1
24.11.2017 11:00:00 6,1 5,4 14 8 36 19 WNW 1010,8 -
24.11.2017 10:00:00 8,3 7,4 18 10 - - SW 1009,0 6
24.11.2017 09:00:00 8,6 7,5 22 12 43 23 SW 1008,4 13
24.11.2017 08:00:00 8,6 7,4 22 12 58 31 SW 1007,6 10
24.11.2017 07:00:00 8,6 7,9 25 14 - - SW 1007,3 11
24.11.2017 06:00:00 8,6 7,5 22 12 47 25 SW 1007,1 9
24.11.2017 05:00:00 8,6 7,4 18 10 61 33 SSW 1007,3 10
24.11.2017 04:00:00 8,9 8,3 18 10 - - SSW 1007,2 5
24.11.2017 03:00:00 8,7 8,1 11 6 29 16 S 1008,1 3,6
24.11.2017 02:00:00 7,9 7,1 7 4 14 8 - 1009,5 9
24.11.2017 01:00:00 8,0 7,3 7 4 - - SW 1010,3 2,7
24.11.2017 00:00:00 8,2 7,3 7 4 18 10 SW 1010,7 9
23.11.2017 23:00:00 8,2 7,3 7 4 18 10 SW 1010,9 -
23.11.2017 22:00:00 8,3 7,5 7 4 - - WSW 1011,0 5
23.11.2017 21:00:00 8,6 7,8 11 6 22 12 WSW 1010,7 2,9
23.11.2017 20:00:00 8,8 8,0 11 6 25 14 SW 1010,0 3,4
23.11.2017 19:00:00 9,1 8,4 14 8 - - SW 1009,8 1,3
23.11.2017 18:00:00 8,8 8,0 14 8 36 19 WSW 1009,0 6
23.11.2017 17:00:00 9,5 8,3 18 10 40 21 SW 1008,1 6
23.11.2017 16:00:00 10,1 7,6 18 10 - - SW 1007,4 11
23.11.2017 15:00:00 10,8 7,7 18 10 50 27 SW 1006,3 27
23.11.2017 14:00:00 10,3 7,4 22 12 50 27 SW 1006,4 35
23.11.2017 13:00:00 10,1 7,2 - - - - - 1005,9 29
23.11.2017 12:00:00 9,4 6,7 - - - - - 1005,5 35
23.11.2017 11:00:00 9,2 5,3 - - - - - 1005,3 9
23.11.2017 10:00:00 9,7 4,5 - - - - - 1003,9 20
23.11.2017 09:00:00 9,9 4,1 - - - - - 1002,8 45
23.11.2017 08:00:00 8,5 3,9 - - - - - 1002,8 45
23.11.2017 07:00:00 7,2 3,9 - - - - - 1003,2 45
23.11.2017 06:00:00 6,4 2,8 - - 40 21 - 1003,9 35
23.11.2017 05:00:00 6,3 2,7 14 8 40 21 - 1004,0 40
23.11.2017 04:00:00 6,4 2,5 14 8 - - SSE 1004,3 40
23.11.2017 03:00:00 6,1 2,4 14 8 36 19 S 1004,9 35
23.11.2017 02:00:00 5,8 2,2 14 8 32 18 S 1005,5 40
23.11.2017 01:00:00 5,6 2,1 11 6 - - S 1006,2 40
23.11.2017 00:00:00 5,9 1,8 14 8 29 16 S 1006,4 45
22.11.2017 23:00:00 6,7 2,2 11 6 29 16 S 1006,8 45
22.11.2017 22:00:00 7,0 2,4 11 6 - - S 1006,8 45
22.11.2017 21:00:00 7,0 2,6 11 6 29 16 S 1006,7 45
22.11.2017 20:00:00 7,3 2,2 11 6 29 16 S 1006,8 40
22.11.2017 19:00:00 7,1 2,6 11 6 - - S 1007,5 40
22.11.2017 18:00:00 6,9 3,6 14 8 29 16 S 1008,1 40
22.11.2017 17:00:00 7,0 4,0 14 8 25 14 SSE 1008,5 35
22.11.2017 16:00:00 8,0 4,5 11 6 - - S 1008,7 30
22.11.2017 15:00:00 8,4 5,2 11 6 25 14 - 1009,3 29
22.11.2017 14:00:00 7,0 4,6 11 6 22 12 S 1010,1 13
22.11.2017 13:00:00 7,3 4,6 7 4 - - SSW 1010,7 12
22.11.2017 12:00:00 5,5 4,4 11 6 22 12 SSW 1011,9 5
22.11.2017 11:00:00 5,1 4,1 11 6 22 12 SSW 1012,2 4,8
22.11.2017 10:00:00 5,0 4,0 11 6 - - SSW 1012,2 4,3
22.11.2017 09:00:00 5,1 4,1 11 6 36 19 SW 1012,0 5
22.11.2017 08:00:00 5,5 4,5 14 8 36 19 SW 1011,7 4,8
22.11.2017 07:00:00 5,6 4,6 14 8 - - SW 1011,5 4,2
22.11.2017 06:00:00 5,7 4,7 14 8 36 19 SW 1011,9 3,7
22.11.2017 05:00:00 5,8 4,9 18 10 36 19 SW 1011,8 3,4
22.11.2017 04:00:00 5,6 4,7 14 8 - - SW 1012,4 3,2
22.11.2017 03:00:00 5,5 4,7 14 8 29 16 SW 1013,1 2,8
22.11.2017 02:00:00 5,3 4,6 18 10 29 16 SW 1013,4 0,5
22.11.2017 01:00:00 5,2 4,5 14 8 - - SW 1013,8 1,8
22.11.2017 00:00:00 5,1 4,3 14 8 32 18 SW 1014,0 1,6
21.11.2017 23:00:00 5,0 4,2 14 8 29 16 SW 1014,3 1,5
21.11.2017 22:00:00 4,8 4,1 14 8 - - SW 1014,7 1,4
21.11.2017 21:00:00 4,7 3,8 18 10 36 19 SW 1014,8 2,5
21.11.2017 20:00:00 4,6 3,9 14 8 36 19 SW 1015,0 -
21.11.2017 19:00:00 4,6 3,9 18 10 - - SW 1015,4 0,9
21.11.2017 18:00:00 4,5 3,9 14 8 29 16 SW 1015,4 0,1
21.11.2017 17:00:00 4,5 3,8 14 8 32 18 WSW 1015,9 0,3
21.11.2017 16:00:00 4,5 3,8 14 8 - - WSW 1015,7 0,2
21.11.2017 15:00:00 4,6 3,9 14 8 36 19 SW 1016,0 0,1
21.11.2017 14:00:00 5,0 4,3 14 8 36 19 WSW 1016,0 0,2
21.11.2017 13:00:00 5,4 4,7 14 8 - - WSW 1016,4 0,2
21.11.2017 12:00:00 5,8 5,2 14 8 32 18 WSW 1016,6 0,1
21.11.2017 11:00:00 5,9 5,3 14 8 40 21 SW 1016,7 0,1
21.11.2017 10:00:00 5,9 5,3 18 10 - - SW 1016,5 0,3
21.11.2017 09:00:00 6,0 5,4 18 10 29 16 SW 1016,3 0,3
21.11.2017 08:00:00 6,1 5,4 11 6 22 12 SW 1016,1 0,3
21.11.2017 07:00:00 6,2 5,6 11 6 - - SW 1015,6 0,3
21.11.2017 06:00:00 6,3 5,7 14 8 25 14 WSW 1015,6 0,1
21.11.2017 05:00:00 6,3 5,7 14 8 29 16 WSW 1015,5 0,3
21.11.2017 04:00:00 6,4 5,8 11 6 - - WSW 1015,6 0,1
21.11.2017 03:00:00 6,3 5,7 11 6 29 16 WSW 1015,9 0,1
21.11.2017 02:00:00 6,1 5,5 11 6 29 16 WSW 1015,8 0,1
21.11.2017 01:00:00 6,0 5,5 14 8 - - WSW 1015,9 0,1
21.11.2017 00:00:00 5,6 5,0 14 8 29 16 WSW 1015,9 0,1
20.11.2017 23:00:00 5,3 4,7 14 8 32 18 WSW 1015,9 0,2
20.11.2017 22:00:00 5,0 4,2 14 8 - - WSW 1016,3 1,9
20.11.2017 21:00:00 4,9 4,2 14 8 32 18 WSW 1016,3 0,2
20.11.2017 20:00:00 4,3 3,7 14 8 29 16 SW 1016,6 0,9
20.11.2017 19:00:00 3,9 3,3 14 8 - - SW 1016,8 0,1
20.11.2017 18:00:00 3,4 2,8 11 6 32 18 WSW 1017,2 0,1
20.11.2017 17:00:00 2,9 2,2 14 8 32 18 WSW 1017,7 0,3
20.11.2017 16:00:00 2,4 1,8 14 8 - - SW 1018,4 0,4
20.11.2017 15:00:00 2,1 1,5 14 8 43 23 SW 1018,9 0,2
20.11.2017 14:00:00 1,7 1,1 11 6 32 18 SW 1019,6 0,1
20.11.2017 13:00:00 1,6 0,8 - - - - - 1020,4 0,9
20.11.2017 12:00:00 1,4 0,5 - - - - - 1021,5 4,4
20.11.2017 11:00:00 1,5 0,3 - - - - - 1022,0 9
20.11.2017 10:00:00 0,3 -0,8 - - - - - 1023,0 4,5
20.11.2017 09:00:00 0,0 -1,2 - - - - - 1023,4 3,8
20.11.2017 08:00:00 -0,1 -1,3 - - - - - 1023,3 3,9
20.11.2017 07:00:00 -0,4 -1,6 - - - - - 1023,4 -
20.11.2017 06:00:00 - - - - - - - - 3,5
20.11.2017 05:00:00 - - - - - - - - 3,0
20.11.2017 04:00:00 - - - - - - - - 0,2
20.11.2017 03:00:00 - - - - - - - - 0,1
20.11.2017 02:00:00 -0,4 -1,1 - - - - - 1025,0 0,1
20.11.2017 01:00:00 -0,4 -1,0 - - - - - 1025,5 0,1
20.11.2017 00:00:00 0,1 -0,5 - - - - - 1025,6 0,4
19.11.2017 23:00:00 0,5 -0,4 - - - - - 1025,6 3,1
19.11.2017 22:00:00 1,1 -0,1 - - - - - 1025,4 -
19.11.2017 21:00:00 1,3 -0,1 - - - - - 1024,8 13
19.11.2017 20:00:00 1,6 0,0 - - - - - 1024,4 18
19.11.2017 19:00:00 1,4 0,0 - - - - - 1023,9 15
19.11.2017 18:00:00 - - - - - - - - 20
19.11.2017 17:00:00 - - - - - - - - 22
19.11.2017 16:00:00 - - - - - - - - 19
19.11.2017 15:00:00 - - - - - - - - 7
19.11.2017 14:00:00 2,8 0,6 - - - - - 1022,1 15
19.11.2017 13:00:00 2,8 0,7 - - - - - 1022,0 24
19.11.2017 12:00:00 2,3 0,2 - - - - - 1022,0 20
19.11.2017 11:00:00 1,7 -0,6 - - - - - 1021,8 19
19.11.2017 10:00:00 0,8 -0,7 - - - - - 1021,2 16
19.11.2017 09:00:00 0,4 -1,0 - - - - - 1021,0 13
19.11.2017 08:00:00 0,5 -1,1 - - - - - 1020,1 14
19.11.2017 07:00:00 0,8 -0,9 - - - - - 1019,2 15
19.11.2017 06:00:00 1,2 -0,7 - - - - - 1019,0 17
19.11.2017 05:00:00 2,3 0,6 - - - - - 1018,3 12
19.11.2017 04:00:00 2,9 1,6 - - - - - 1017,9 5
19.11.2017 03:00:00 3,4 2,4 - - - - - 1017,6 -
19.11.2017 02:00:00 3,7 2,8 - - - - - 1017,6 2,4
19.11.2017 01:00:00 3,9 3,3 - - - - - 1018,0 2,6
19.11.2017 00:00:00 3,5 2,8 - - - - - 1018,1 0,1
18.11.2017 23:00:00 3,2 - - - - - - - 0,1
18.11.2017 22:00:00 2,7 - - - - - - - 0,1
18.11.2017 21:00:00 2,3 1,7 - - - - - 1020,4 0,1
18.11.2017 20:00:00 1,9 1,2 - - - - - 1020,8 0,1
18.11.2017 19:00:00 1,4 0,7 - - - - - 1021,5 0,4
18.11.2017 18:00:00 1,0 0,0 - - - - - 1022,0 2,9
18.11.2017 17:00:00 1,2 -0,1 - - - - - 1022,2 -
18.11.2017 16:00:00 1,4 -0,3 - - - - - 1022,6 10
18.11.2017 15:00:00 1,7 0,0 - - - - - 1022,7 13

tt = Température de l'air
td = dewpoint
ff = Vitesse du vent
fx = gusts
dd = Direction du vent
ppp = reduced air pressure
vv = visibility

stations d'obs. à proximité